Skip Page Navigation
NASA JPL Caltech
NASA Logo - Jet Propulsion Laboratory + View the NASA Portal
+ Near-Earth Object (NEO) Program
Search JPL
JPL Home Earth Solar System Stars & Galaxies Technology
JPL Solar System Dynamics
BODIES ORBITS EPHEMERIDES TOOLS PHYSICAL DATA DISCOVERY FAQ SITE MAP
JPL Small-Body Database Browser
Search: [ help ]  
8006 Tacchini (1988 QU)
Classification: Main-belt Asteroid          SPK-ID: 2008006
Ephemeris | Orbit Diagram | Orbital Elements | Physical Parameters | Discovery Circumstances ]

[ show orbit diagram ]
Orbital Elements at Epoch 2456400.5 (2013-Apr-18.0) TDB
Reference: JPL 1 (heliocentric ecliptic J2000)
 Element Value Uncertainty (1-sigma)   Units 
e .03337040632638304 6.6755e-08  
a 2.659548165294771 2.4361e-08 AU
q 2.570797962374298 1.8484e-07 AU
i 15.25673837312565 8.0695e-06 deg
node 149.2077149407311 2.748e-05 deg
peri 146.4051271570026 0.00014164 deg
M 274.1818278302701 0.00014188 deg
tp 2456778.147815033091
(2014-Apr-30.64781503)
0.00062589 JED
period 1584.200758121793
4.34
2.1767e-05
5.959e-08
d
yr
n .227243926096091 3.1223e-09 deg/d
Q 2.748298368215245 2.5174e-08 AU
  Orbit Determination Parameters
   # obs. used (total)      852  
   data-arc span      23252 days (63.66 yr)  
   first obs. used      1949-08-22  
   last obs. used      2013-04-20  
   planetary ephem.      DE405  
   SB-pert. ephem.      SB405-CPV-2  
   condition code      0  
   fit RMS      .53856  
   data source      ORB  
   producer      Otto Matic  
   solution date      2013-Apr-29 13:29:05  

Additional Information
 Earth MOID = 1.5651 AU 
 T_jup = 3.335 
[ show covariance matrix ]

Ephemeris | Orbit Diagram | Orbital Elements | Physical Parameters | Discovery Circumstances ]

Physical Parameter Table
Parameter Symbol Value Units Sigma Reference Notes
absolute magnitude H 13.1 mag n/a PDS3 (MPC 30853)  

8006 Tacchini           Discovered 1988 Aug. 22 at Osservatorio San Vittore.
Named in memory of Pietro Tacchini (1838-1905), Italian astronomer. He was a pioneer, with Secchi, of astrophysics in Italy and cofounded the Società degli Spettroscopisti Italiani (1871), now the Italian Astronomical Society. Director of the Modena Observatory from 1859 to 1863, he moved to the Palermo Observatory in 1879. In 1902, he was called to Rome to become director of the Central Office of Meteorology and of the Astronomical Observatory of Collegio Romano. He also studied meteorology and seismology and founded the Società Sismologica Italiana (1895).
NOTE: some special characters may not display properly (any characters within {} are an attempt to place the proper accent above a character)
Reference: 19980808/MPCPages.arcLast Updated: 2009-11-17

Alternate Designations
 1988 QU = 1949 QR2 = 1995 DB5 
Ephemeris | Orbit Diagram | Orbital Elements | Physical Parameters | Discovery Circumstances ]
ABOUT SSD CREDITS/AWARDS PRIVACY/COPYRIGHT GLOSSARY LINKS
FirstGov 2013-May-23 22:57 UT
(server date/time)  
NASA Home Page
Site Manager:   Donald K. Yeomans
Webmaster  Alan B. Chamberlin